STARLINK-3813 (52482 NORAD) Tracking and Keplerian Element Data

This shows tracking and keplerian element data for the satellite.

Feedback or suggestion? Click here.




ElementValue
Catalog52482
NameSTARLINK-3813
Epoch Orbit130
Epoch Day167.08334491
Epoch Year2022
RAAN64.9784
Inclination53.2166
Eccentricity0.0001698
Argument of Perigee25.3061
Mean Anonmoly123.6477
Mean Motion15.73194514
Decay Rate0.00084595
L11 52482U 22049AH 22167.08334491 .00084595 00000+0 60124-3 0 9994
L22 52482 53.2166 64.9784 0001698 25.3061 123.6477 15.73194514 1309

Live tracking and technical data element details for STARLINK-3813 (NORAD 52482). STARLINK-3813 can be tracked NOW for your location showing map with azimuth and elevation plus other details from your city location.

Track the satellite on the map from your city or location and see movement details for azimuth, elevation, latitude, longitude, range, height, and movement on the map or in text.







IsCatalogInMostPopularTable: catalog: 52482, numindb: 1
Update: records affected: 1



GetName: 52482 STARLINK-3813

Hit Count: updated at: Mon, 27 Jun 2022 05:25:49 GMT